Location: ?????
(55.6500°N, 37.2500°E)
Time: 02:26:28
(UTC+00:00)

Cosmos 1833 Rocket - Pass Details

Date: 19 May 2025
Orbit: 831 x 839 km, 71.0° (Epoch: 13 June)

Event Time Altitude Azimuth Distance (km) Brightness Sun altitude
Rises 20:26:21 0° 241° (WSW) 3,388 5.7 -13.3°
Reaches altitude 10° 20:28:56 10° 249° (WSW) 2,457 5.1 -13.4°
Maximum altitude 20:34:14 40° 319° (NW) 1,221 4.1 -13.5°
Drops below altitude 10° 20:39:33 10° 29° (NNE) 2,466 5.9 -13.7°
Sets 20:42:10 0° 37° (NE) 3,403 6.5 -13.8°
